Edinburg, TX

12:54 PM CDT on June 23, 2017 (GMT -0500)
Edinburg

Weather History for KEBG - November, 2012

Change the Weather History Date:

Tuesday, November 6, 2012

  Actual Average (KMFE) Record (KMFE)
Temperature  
Mean Temperature 78 °F -  
Max Temperature 88 °F 78 °F 93 °F (1996)
Min Temperature 67 °F 59 °F 43 °F (1970)
Cooling Degree Days 12    
Growing Degree Days 28 (Base 50)    
Moisture  
Dew Point 62 °F    
Average Humidity 65    
Maximum Humidity 91    
Minimum Humidity 28    
Precipitation  
Precipitation 0.00 in - - ()
Sea Level Pressure  
Sea Level Pressure 30.07 in    
Wind  
Wind Speed 7 mph (East)    
Max Wind Speed 15 mph    
Max Gust Speed 20 mph    
Visibility 7 miles    
Events      
Averages and records for this station are not official NWS values.
T = Trace of Precipitation, MM = Missing Value Source: NWS Daily Summary

Daily Weather History Graph

Daily Weather History Graph

Search for Another Location

Airport or City:

Trip Planner

Search our weather history database for the weather conditions in past years. The results will help you decide how hot, cold, wet, or windy it might be!

Date:

Astronomy

Nov. 06, 2012 Rise Set
Actual Time 6:45 AM CST 5:46 PM CST
Civil Twilight 6:21 AM CST 6:10 PM CST
Nautical Twilight 5:53 AM CST 6:38 PM CST
Astronomical Twilight 5:26 AM CST 7:05 PM CST
Moon No Moon Rise 12:43 PM CST (11/6)
Length of Visible Light 11h 49m
Length of Day
11h 01m
Waning Gibbous, 53% of the Moon is Illuminated
Nov 6
Waning Gibbous
Nov 6
Last Quarter
Nov 13
New
Nov 20
First Quarter
Nov 28
Full

Hourly Weather History & Observations

Time (CST) Temp. Heat Index Dew Point Humidity Pressure Visibility Wind Dir Wind Speed Gust Speed Precip Events Conditions
12:15 AM 75.2 °F - 70.2 °F 84% 30.01 in 7.0 mi South 8.1 mph - N/A   Clear
12:35 AM 75.2 °F - 70.7 °F 86% 30.00 in 7.0 mi South 6.9 mph - N/A   Clear
12:55 AM 74.8 °F - 70.5 °F 86% 30.00 in 7.0 mi South 6.9 mph - N/A   Clear
1:15 AM 74.7 °F - 70.3 °F 86% 30.00 in 7.0 mi South 6.9 mph - N/A   Clear
1:35 AM 74.7 °F - 70.3 °F 86% 29.99 in 7.0 mi SSW 6.9 mph - N/A   Clear
1:55 AM 74.8 °F - 70.5 °F 86% 29.99 in 7.0 mi SSW 6.9 mph - N/A   Clear
2:15 AM 74.7 °F - 70.2 °F 86% 29.99 in 7.0 mi SSW 5.8 mph - N/A   Clear
2:35 AM 74.3 °F - 69.8 °F 86% 29.99 in 7.0 mi SSW 5.8 mph - N/A   Clear
2:55 AM 73.9 °F - 69.3 °F 85% 29.99 in 7.0 mi SSW 6.9 mph - N/A   Clear
3:15 AM 73.4 °F - 68.7 °F 85% 29.99 in 7.0 mi SSW 3.5 mph - N/A   Clear
3:35 AM 72.7 °F - 68.4 °F 86% 29.99 in 7.0 mi Calm Calm - N/A   Clear
3:55 AM 72.0 °F - 68.0 °F 87% 29.99 in 7.0 mi Calm Calm - N/A   Clear
4:15 AM 71.6 °F - 68.0 °F 88% 29.99 in 5.0 mi Calm Calm - N/A   Clear
4:35 AM 71.1 °F - 67.8 °F 89% 29.99 in 7.0 mi Calm Calm - N/A   Clear
4:55 AM 70.5 °F - 67.3 °F 89% 29.99 in 5.0 mi SW 3.5 mph - N/A   Clear
5:15 AM 69.8 °F - 66.6 °F 89% 29.99 in 5.0 mi Calm Calm - N/A   Clear
5:35 AM 70.0 °F - 66.9 °F 90% 30.01 in 5.0 mi ENE 3.5 mph - N/A   Clear
5:55 AM 70.9 °F - 68.0 °F 91% 30.05 in 7.0 mi North 10.4 mph 17.3 mph N/A   Scattered Clouds
6:15 AM 70.7 °F - 67.6 °F 90% 30.05 in 5.0 mi NNE 6.9 mph - N/A   Scattered Clouds
6:35 AM 70.7 °F - 67.5 °F 89% 30.06 in 5.0 mi NE 6.9 mph - N/A   Clear
6:55 AM 70.3 °F - 67.3 °F 90% 30.07 in 3.0 mi ENE 5.8 mph - N/A   Clear
7:15 AM 70.3 °F - 67.5 °F 91% 30.08 in 3.0 mi NE 4.6 mph - N/A   Clear
7:35 AM 70.7 °F - 68.0 °F 91% 30.09 in 3.0 mi ENE 5.8 mph - N/A   Clear
7:55 AM 72.1 °F - 69.1 °F 90% 30.10 in 5.0 mi ENE 8.1 mph - N/A   Clear
8:15 AM 73.8 °F - 69.4 °F 86% 30.10 in 5.0 mi East 10.4 mph - N/A   Clear
8:35 AM 75.0 °F - 69.1 °F 82% 30.11 in 5.0 mi East 10.4 mph - N/A   Haze
8:55 AM 76.3 °F - 68.0 °F 75% 30.11 in 5.0 mi East 13.8 mph 19.6 mph N/A   Haze
9:15 AM 77.9 °F - 66.9 °F 69% 30.11 in 7.0 mi East 11.5 mph - N/A   Clear
9:35 AM 79.3 °F - 66.9 °F 66% 30.12 in 7.0 mi ENE 10.4 mph - N/A   Clear
9:55 AM 80.4 °F 82.4 °F 66.0 °F 61% 30.12 in 7.0 mi East 11.5 mph - N/A   Clear
10:15 AM 81.5 °F 83.4 °F 65.3 °F 58% 30.12 in 7.0 mi ENE 12.7 mph - N/A   Clear
10:35 AM 82.4 °F 84.2 °F 65.1 °F 56% 30.12 in 7.0 mi ENE 9.2 mph - N/A   Clear
10:55 AM 83.7 °F 85.3 °F 64.9 °F 53% 30.12 in 7.0 mi ENE 8.1 mph - N/A   Clear
11:15 AM 84.2 °F 85.6 °F 64.2 °F 51% 30.11 in 5.0 mi ENE 10.4 mph - N/A   Haze
11:35 AM 84.7 °F 85.9 °F 63.5 °F 49% 30.10 in 7.0 mi East 6.9 mph 16.1 mph N/A   Clear
11:55 AM 85.3 °F 86.4 °F 63.5 °F 48% 30.10 in 7.0 mi East 9.2 mph - N/A   Clear
12:15 PM 86.0 °F 87.1 °F 63.5 °F 47% 30.09 in 7.0 mi East 10.4 mph - N/A   Clear
12:35 PM 86.5 °F 87.3 °F 63.1 °F 45% 30.08 in 7.0 mi East 9.2 mph - N/A   Clear
12:55 PM 86.5 °F 87.3 °F 63.0 °F 45% 30.07 in 7.0 mi East 12.7 mph - N/A   Clear
1:15 PM 87.3 °F 87.5 °F 61.3 °F 42% 30.07 in 7.0 mi East 8.1 mph - N/A   Clear
1:35 PM 87.3 °F 87.2 °F 61.0 °F 41% 30.06 in 5.0 mi East 8.1 mph - N/A   Haze
1:55 PM 87.8 °F 87.1 °F 59.0 °F 38% 30.06 in 7.0 mi ENE 13.8 mph - N/A   Clear
2:15 PM 88.2 °F 86.9 °F 57.4 °F 35% 30.06 in 7.0 mi East 10.4 mph - N/A   Clear
2:35 PM 88.0 °F 86.3 °F 55.8 °F 33% 30.06 in 7.0 mi ENE 9.2 mph - N/A   Clear
2:55 PM 87.8 °F 85.9 °F 54.3 °F 32% 30.06 in 7.0 mi ENE 13.8 mph 18.4 mph N/A   Clear
3:15 PM 87.3 °F - 52.3 °F 30% 30.06 in 7.0 mi East 9.2 mph - N/A   Clear
3:35 PM 87.1 °F - 50.4 °F 28% 30.05 in 7.0 mi East 13.8 mph - N/A   Clear
3:55 PM 86.2 °F - 50.7 °F 29% 30.05 in 10.0 mi East 15.0 mph 19.6 mph N/A   Clear
4:15 PM 85.3 °F - 51.1 °F 31% 30.05 in 7.0 mi East 12.7 mph - N/A   Clear
4:35 PM 84.4 °F - 51.3 °F 32% 30.06 in 7.0 mi East 11.5 mph - N/A   Clear
4:55 PM 83.3 °F - 51.3 °F 33% 30.06 in 7.0 mi East 13.8 mph - N/A   Clear
5:35 PM 80.2 °F - 52.7 °F 38% 30.07 in 7.0 mi East 12.7 mph - N/A   Clear
5:55 PM 78.8 °F - 54.0 °F 42% 30.08 in 7.0 mi East 10.4 mph - N/A   Clear
6:15 PM 77.4 °F - 54.7 °F 45% 30.09 in 10.0 mi East 9.2 mph - N/A   Clear
6:35 PM 76.1 °F - 55.4 °F 49% 30.10 in 10.0 mi East 10.4 mph - N/A   Clear
6:55 PM 75.2 °F - 55.9 °F 51% 30.10 in 7.0 mi East 9.2 mph - N/A   Clear
7:15 PM 74.3 °F - 56.5 °F 54% 30.11 in 10.0 mi East 6.9 mph - N/A   Clear
7:35 PM 73.0 °F - 57.0 °F 57% 30.11 in 7.0 mi East 5.8 mph - N/A   Clear
7:55 PM 71.4 °F - 57.7 °F 62% 30.11 in 7.0 mi Calm Calm - N/A   Clear
8:15 PM 72.5 °F - 56.7 °F 57% 30.12 in 7.0 mi Calm Calm - N/A   Clear
8:35 PM 71.4 °F - 57.2 °F 61% 30.12 in 10.0 mi Calm Calm - N/A   Clear
8:55 PM 70.7 °F - 57.6 °F 63% 30.12 in 10.0 mi Calm Calm - N/A   Clear
9:15 PM 70.7 °F - 57.7 °F 63% 30.13 in 10.0 mi Calm Calm - N/A   Clear
9:35 PM 70.0 °F - 57.4 °F 64% 30.13 in 10.0 mi Calm Calm - N/A   Clear
9:55 PM 68.2 °F - 58.6 °F 71% 30.13 in 10.0 mi East 3.5 mph - N/A   Clear
10:15 PM 67.5 °F - 59.2 °F 75% 30.13 in 10.0 mi Calm Calm - N/A   Clear
10:35 PM 68.2 °F - 59.4 °F 73% 30.13 in 10.0 mi Calm Calm - N/A   Clear
10:55 PM 68.4 °F - 59.4 °F 73% 30.13 in 10.0 mi Calm Calm - N/A   Clear
11:15 PM 67.8 °F - 59.2 °F 74% 30.13 in 10.0 mi Calm Calm - N/A   Clear
11:35 PM 67.6 °F - 59.2 °F 74% 30.13 in 10.0 mi Calm Calm - N/A   Clear
11:55 PM 67.1 °F - 58.5 °F 74% 30.12 in 10.0 mi Calm Calm - N/A   Clear